Location: Bakov nad Jizerou
(50.4784°N, 14.9394°E)
Time: 07:05:20
(UTC+00:00)

Genesis I - Pass Details

Date: 16 June 2021
Orbit: 476 x 543 km, 64.5° (Epoch: 28 July)

Event Time Altitude Azimuth Distance (km) Brightness Sun altitude
Rises 20:06:04 0° 217° (SW) 2,577 6.6 -6.7°
Reaches altitude 10° 20:08:12 10° 217° (SW) 1,709 5.7 -6.9°
Maximum altitude 20:12:01 83° 131° (SE) 521 3.1 -7.2°
Drops below altitude 10° 20:15:58 10° 42° (NE) 1,762 6.0 -7.6°
Sets 20:18:11 0° 42° (NE) 2,666 7.0 -7.9°
